This demonstration page uses our WeatherBlox Daily Observations layout. Learn more.

Left ArrowRight Arrow

31.31129, -92.44514

Hourly Observations for August 20, 2016

Temp ( °F °C ) Dew Point ( °F °C ) Humidity (%) Winds ( mph kmh ) Pressure ( in mb ) Visibility ( mi km ) Precip ( " mm )
12:53 am 00:53 Clear 75 23.9 74 23.3 96 96 SSE 7 11 29.93 1013 9 14 0.00 0.00
1:53 am 01:53 Clear 75 23.9 75 23.9 100 100 SSE 3 6 29.91 1013 9 14 0.00 0.00
2:53 am 02:53 Clear 75 23.9 75 23.9 100 100 SSE 5 7 29.91 1013 8 13 0.00 0.00
3:53 am 03:53 Clear 75 23.9 75 23.9 100 100 SSE 3 6 29.91 1013 8 13 0.00 0.00
4:53 am 04:53 Clear 75 23.9 75 23.9 100 100 SE 5 7 29.91 1013 7 11 0.00 0.00
5:53 am 05:53 Clear with Mist and Fog 75 23.9 75 23.9 100 100 Calm 29.92 1013 6 10 0.00 0.00
6:53 am 06:53 Sunny with Mist and Fog 74 23.3 74 23.3 100 100 SE 5 7 29.93 1014 4 6 0.00 0.00
7:53 am 07:53 Sunny with Mist and Fog 76 24.4 76 24.4 100 100 SSE 5 7 29.93 1014 6 10 0.00 0.00
8:53 am 08:53 Sunny 80 26.7 77 25 90 90 S 5 7 29.92 1013 9 14 0.00 0.00
9:53 am 09:53 Mostly Sunny 83 28.3 77 25 82 82 SW 10 17 29.93 1013 9 14 0.00 0.00
10:53 am 10:53 Mostly Sunny 86 30 76 24.4 72 72 SSW 12 19 29.93 1014 10 16 0.00 0.00
11:53 am 11:53 Partly Cloudy 87 30.6 76 24.4 70 70 SW 9 15 29.93 1013 10 16 0.00 0.00
12:53 pm 12:53 Sunny 89 31.7 74 23.3 61 61 SW 9 15 29.92 1013 10 16 0.00 0.00
1:53 pm 13:53 Partly Cloudy 90 32.2 74 23.3 59 59 WSW 10 17 29.90 1012 10 16 0.00 0.00
2:36 pm 14:36 Cloudy with Nearby Thunderstorms 85 29.4 76 24.4 75 75 W 3 6 29.88 1012 4 6 0.01 0.25
2:49 pm 14:49 Mostly Cloudy with Thunderstorms 88 31 75 24 66 66 SW 16 26 29.88 1012 10 16 0.01 0.25
2:53 pm 14:53 Mostly Cloudy with Thunderstorms 84 28.9 73 22.8 70 70 SW 22 35 29.89 1012 10 16 0.01 0.25
3:02 pm 15:02 Partly Cloudy 79 26.1 72 22.2 79 79 SW 13 20 29.91 1013 10 16 0.01 0.25
3:53 pm 15:53 Mostly Sunny 80 26.7 74 23.3 82 82 SSW 7 11 29.87 1012 10 16 0.02 0.51
4:53 pm 16:53 Sunny 88 31.1 73 22.8 61 61 SSW 7 11 29.86 1011 10 16 0.00 0.03
5:53 pm 17:53 Sunny 83 28.3 74 23.3 74 74 SSW 3 6 29.87 1011 10 16 0.00 0.00
6:53 pm 18:53 Sunny 81 27.2 76 24.4 85 85 Calm 29.86 1011 10 16 0.00 0.00
7:53 pm 19:53 Clear 79 26.1 75 23.9 88 88 S 3 6 29.87 1011 10 16 0.00 0.00
8:53 pm 20:53 Clear 78 25.6 75 23.9 90 90 SE 5 7 29.86 1011 10 16 0.00 0.00
9:53 pm 21:53 Clear 76 24.4 75 23.9 97 97 SSE 5 7 29.90 1012 10 16 0.00 0.00
10:53 pm 22:53 Partly Cloudy 77 25 75 23.9 94 94 SSW 5 7 29.90 1013 10 16 0.00 0.00
11:53 pm 23:53 Mostly Cloudy 77 25 76 24.4 96 96 S 3 6 29.92 1013 9 14 0.00 0.00

Powered by AerisWeather